User: anonymous   Login
Location: Stilling
(56.0622°N, 9.9882°E)
Time: 22:28:07
(UTC+00:00)
Language:

Gbstr 26 Del rocket - Orbit

View from above orbital plane
View from above orbital plane
View from above satellite
View from above satellite

Ground track
Ground track

The orbit data is extracted from the following two-line orbital elements,

1 25876U 99041E   20275.46647268 +.00000029 +00000-0 +44309-4 0  9995
2 25876 051.7667 251.8352 0530780 293.3211 061.2721 14.04463363083523
Epoch (UTC): 01 October 2020 11:11:43
Eccentricity: 0.0530780
inclination: 51.7667°
perigee height: 493 km
apogee height: 1263 km
right ascension of ascending node: 251.8352°
argument of perigee: 293.3211°
revolutions per day: 14.04463363
mean anomaly at epoch: 61.2721°
orbit number at epoch: 8352

The dashed part of the orbit path shows where the satellite is in the earth's shadow,  

DLR